Change the Weather History Date:

Sunday, March 18, 2012

  Actual Average Record
Temperature  
Mean Temperature 61 °F 39 °F  
Max Temperature 69 °F 49 °F 74 °F (2011)
Min Temperature 52 °F 29 °F -5 °F (1916)
Degree Days  
Heating Degree Days 4 26  
Month to date heating degree days 337 525  
Since 1 July heating degree days 4110 4992  
Cooling Degree Days 0 0  
Month to date cooling degree days 0 0  
Year to date cooling degree days 0 0  
Growing Degree Days 10 (Base 50)    
Moisture  
Dew Point 51 °F    
Average Humidity 72    
Maximum Humidity 86    
Minimum Humidity 57    
Precipitation  
Precipitation 0.00 in 0.10 in 1.62 in (1936)
Month to date precipitation 0.80 1.61  
Year to date precipitation 5.56 6.65  
Snow  
Snow 0.00 in - - ()
Month to date snowfall 0.1  
Since 1 July snowfall 12.3  
Snow Depth 0.00 in    
Sea Level Pressure  
Sea Level Pressure 30.24 in    
Wind  
Wind Speed 6 mph (ESE)    
Max Wind Speed 15 mph    
Max Gust Speed 24 mph    
Visibility 4 miles    
Events      
T = Trace of Precipitation, MM = Missing Value Source: NWS Daily Summary

Daily Weather History Graph

Daily Weather History Graph

Search for Another Location

Airport or City:

Trip Planner

Search our weather history database for the weather conditions in past years. The results will help you decide how hot, cold, wet, or windy it might be!

Date:

Astronomy

Mar. 18, 2012 Rise Set
Actual Time 7:13 AM EDT 7:18 PM EDT
Civil Twilight 6:46 AM EDT 7:45 PM EDT
Nautical Twilight 6:13 AM EDT 8:17 PM EDT
Astronomical Twilight 5:41 AM EDT 8:50 PM EDT
Moon 4:53 AM EDT (3/18) 3:40 PM EDT (3/18)
Length of Visible Light 12h 59m
Length of Day
12h 04m
Waning Crescent, 15% of the Moon is Illuminated
Mar 18
Waning Crescent
Mar 22
New
Mar 30
First Quarter
Apr 6
Full
Apr 13
Last Quarter

Hourly Weather History & Observations

Time (EDT) Temp. Dew Point Humidity Pressure Visibility Wind Dir Wind Speed Gust Speed Precip Events Conditions
12:54 AM 61.0 °F 51.1 °F 70% 30.25 in 5.0 mi SSE 9.2 mph - N/A   Haze
1:54 AM 54.0 °F 48.0 °F 80% 30.26 in 4.0 mi East 5.8 mph - N/A   Haze
2:54 AM 55.4 °F 50.0 °F 82% 30.27 in 4.0 mi ESE 3.5 mph - N/A   Haze
3:54 AM 53.1 °F 48.0 °F 83% 30.26 in 4.0 mi ESE 9.2 mph - N/A   Haze
4:31 AM 51.8 °F 48.2 °F 88% 30.26 in 3.0 mi East 8.1 mph - N/A   Mostly Cloudy
4:54 AM 54.0 °F 48.9 °F 83% 30.27 in 3.0 mi NE 9.2 mph - N/A   Haze
5:54 AM 55.9 °F 50.0 °F 80% 30.28 in 3.0 mi East 6.9 mph - N/A   Haze
6:01 AM 55.4 °F 50.0 °F 82% 30.29 in 2.5 mi East 6.9 mph - N/A   Haze
6:21 AM 55.4 °F 50.0 °F 82% 30.29 in 3.0 mi Variable 4.6 mph - N/A   Haze
6:54 AM 53.1 °F 48.9 °F 86% 30.29 in 3.0 mi SE 8.1 mph - N/A   Overcast
7:34 AM 53.6 °F 48.2 °F 82% 30.30 in 2.0 mi SSE 4.6 mph - N/A   Haze
7:54 AM 55.0 °F 50.0 °F 83% 30.30 in 1.8 mi ESE 3.5 mph - N/A   Haze
8:54 AM 55.9 °F 51.1 °F 84% 30.30 in 1.2 mi ESE 3.5 mph - N/A   Haze
9:54 AM 55.9 °F 52.0 °F 87% 30.31 in 1.5 mi East 3.5 mph - N/A   Overcast
10:54 AM 57.0 °F 52.0 °F 83% 30.31 in 1.8 mi Variable 4.6 mph - N/A   Haze
11:41 AM 57.2 °F 51.8 °F 82% 30.30 in 2.0 mi Calm Calm - N/A   Haze
11:54 AM 57.9 °F 52.0 °F 81% 30.30 in 2.0 mi ESE 5.8 mph - N/A   Haze
12:54 PM 60.1 °F 52.0 °F 75% 30.28 in 3.0 mi ESE 8.1 mph - N/A   Haze
1:09 PM 60.8 °F 51.8 °F 72% 30.27 in 3.0 mi ESE 6.9 mph - N/A   Haze
1:54 PM 63.0 °F 52.0 °F 67% 30.25 in 3.0 mi ESE 8.1 mph - N/A   Haze
2:54 PM 66.0 °F 53.1 °F 63% 30.21 in 4.0 mi ESE 8.1 mph - N/A   Haze
3:54 PM 68.0 °F 53.1 °F 59% 30.19 in 5.0 mi SE 9.2 mph - N/A   Haze
4:54 PM 69.1 °F 53.1 °F 57% 30.17 in 6.0 mi East 9.2 mph - N/A   Haze
5:54 PM 66.9 °F 52.0 °F 59% 30.15 in 7.0 mi ESE 5.8 mph - N/A   Clear
6:54 PM 66.0 °F 52.0 °F 60% 30.14 in 8.0 mi NE 5.8 mph - N/A   Partly Cloudy
7:54 PM 66.0 °F 51.1 °F 59% 30.14 in 10.0 mi South 10.4 mph 21.9 mph N/A   Clear
8:54 PM 64.9 °F 51.1 °F 61% 30.15 in 10.0 mi NNE 4.6 mph 19.6 mph N/A   Partly Cloudy
9:54 PM 63.0 °F 50.0 °F 63% 30.16 in 10.0 mi Calm Calm - N/A   Clear
10:54 PM 59.0 °F 50.0 °F 72% 30.16 in 10.0 mi Calm Calm - N/A   Clear
11:54 PM 55.9 °F 50.0 °F 80% 30.17 in 9.0 mi Variable 3.5 mph - N/A   Clear